ボアッティーニ彗星

P/2008 Y1 ( Boattini )

English version
Home page
Updated on May 9, 2009

---------------------------------------------------------------------

・ プロフィール

発見日 2008年12月22日
発見光度 17.9等
発見者 A. Boattini (Catalina Sky Survey)

・ 写真集

・ 軌道要素

The following orbital elements are taken from MPC 65340:

Epoch 2009 Feb. 18.0 TT = JDT 2454880.5
T 2009 Feb. 25.0884 TT                                  MPC
q   1.272083             (2000.0)            P               Q
n   0.0936423      Peri.  162.3579      +0.4649742      -0.8724188
a   4.802729       Node   259.7059      +0.7926989      +0.4860154
e   0.735133       Incl.    8.8053      +0.3942429      +0.0517152
P  10.5
From 146 observations 2008 Dec. 22-2009 Feb. 28, mean residual 0".6.

・ 光度変化

        m1 = 14.0 + 5 logΔ + 15.0 log r

---------------------------------------------------------------------

軌道要素はMPCのEphemerides and Orbital Elementsに掲載されたものです。
光度グラフはComet for Windowsで作成したものです。

---------------------------------------------------------------------

Copyright(C) Seiichi Yoshida (comet@aerith.net). All rights reserved.